This is the latest recevied weather packets stored in our database for station/object KC9MWQ-13. If no packets are shown the sender has not sent any weather packets the latest 10 day(s).
| Time | Temp. | Humidity | Pressure | Rain* | Wind** | Luminosity | Snow |
|---|---|---|---|---|---|---|---|
| 1777712017 | 1.11° C | 84% | 1019.2 hPa | 0 mm | - | 0 W/m² | - |
| 1777711715 | 1.67° C | 85% | 1019.2 hPa | 0 mm | - | 0 W/m² | - |
| 1777711411 | 1.67° C | 83% | 1019.4 hPa | 0 mm | - | 0 W/m² | - |
| 1777711107 | 1.67° C | 83% | 1019.3 hPa | 0 mm | - | 0 W/m² | - |
| 1777710804 | 1.67° C | 83% | 1019.3 hPa | 0 mm | - | 0 W/m² | - |
| 1777710501 | 1.67° C | 82% | 1019.2 hPa | 0 mm | - | 0 W/m² | - |
| 1777710198 | 1.67° C | 82% | 1019.3 hPa | 0 mm | - | 0 W/m² | - |
| 1777709895 | 1.67° C | 82% | 1019.2 hPa | 0 mm | - | 0 W/m² | - |
| 1777709593 | 1.67° C | 81% | 1019.1 hPa | 0 mm | - | 0 W/m² | - |
| 1777709290 | 1.67° C | 80% | 1019.1 hPa | 0 mm | - | 0 W/m² | - |
| 1777708987 | 2.22° C | 78% | 1019.5 hPa | 0 mm | - | 0 W/m² | - |
| 1777708684 | 2.22° C | 76% | 1019.4 hPa | 0 mm | - | 0 W/m² | - |
| 1777708382 | 2.78° C | 75% | 1019.3 hPa | 0 mm | - | 0 W/m² | - |
| 1777708079 | 2.78° C | 74% | 1019.2 hPa | 0 mm | - | 0 W/m² | - |
| 1777707777 | 2.78° C | 73% | 1018.9 hPa | 0 mm | - | 0 W/m² | - |
| 1777707473 | 3.33° C | 73% | 1018.9 hPa | 0 mm | - | 0 W/m² | - |
| 1777707169 | 3.33° C | 72% | 1019.2 hPa | 0 mm | - | 0 W/m² | - |
| 1777706867 | 3.33° C | 72% | 1019.2 hPa | 0 mm | - | 0 W/m² | - |
| 1777706564 | 3.89° C | 72% | 1019.2 hPa | 0 mm | - | 0 W/m² | - |
| 1777706262 | 3.89° C | 73% | 1019.2 hPa | 0 mm | - | 0 W/m² | - |
| 1777705959 | 3.89° C | 75% | 1019.2 hPa | 0 mm | - | 0 W/m² | - |
| 1777705658 | 3.89° C | 75% | 1019.1 hPa | 0 mm | - | 0 W/m² | - |
| 1777705355 | 3.89° C | 78% | 1019.2 hPa | 0 mm | - | 0 W/m² | - |
| 1777705053 | 3.89° C | 84% | 1019.4 hPa | 0 mm | - | 0 W/m² | - |
| 1777704751 | 4.44° C | 84% | 1019.6 hPa | 0 mm | - | 0 W/m² | - |
* Rain latest hour (hover to see other rain measurements)
** Current wind speed in m/s (hover to see current wind gust speed)